Time,TemperatureF,DewpointF,PressureIn,WindDirection,WindDirectionDegrees,WindSpeedMPH,WindSpeedGustMPH,Humidity,HourlyPrecipIn,Conditions,Clouds,dailyrainin,SoftwareType,DateUTC
2013-03-15 00:00:00,52.3,30.4,29.99,SSE,157,3.0,11.0,43,0.00,,,0.00,Wunderground v.1.15,2013-03-15 05:00:00,
2013-03-15 00:10:00,52.9,30.4,29.99,SSE,164,5.0,11.0,42,0.00,,,0.00,Wunderground v.1.15,2013-03-15 05:10:00,
2013-03-15 00:20:00,52.5,30.0,29.99,SSE,163,5.0,5.0,42,0.00,,,0.00,Wunderground v.1.15,2013-03-15 05:20:00,
2013-03-15 00:30:00,52.0,30.7,29.99,South,177,5.0,11.0,44,0.00,,,0.00,Wunderground v.1.15,2013-03-15 05:30:00,
2013-03-15 00:40:00,50.8,30.7,29.98,SSE,153,6.0,11.0,46,0.00,,,0.00,Wunderground v.1.15,2013-03-15 05:40:00,
2013-03-15 00:50:00,50.1,30.6,29.98,SSW,194,5.0,11.0,47,0.00,,,0.00,Wunderground v.1.15,2013-03-15 05:50:00,
2013-03-15 01:00:00,49.4,30.5,29.97,South,182,7.0,11.0,48,0.00,,,0.00,Wunderground v.1.15,2013-03-15 06:00:00,
2013-03-15 01:10:00,48.2,30.4,29.96,South,185,8.0,11.0,50,0.00,,,0.00,Wunderground v.1.15,2013-03-15 06:10:00,
2013-03-15 01:20:00,47.4,30.6,29.96,South,178,9.0,11.0,52,0.00,,,0.00,Wunderground v.1.15,2013-03-15 06:20:00,
2013-03-15 01:30:00,46.9,30.6,29.95,SSW,193,8.0,11.0,53,0.00,,,0.00,Wunderground v.1.15,2013-03-15 06:30:00,
2013-03-15 01:40:00,46.9,30.6,29.95,SSW,196,9.0,9.0,53,0.00,,,0.00,Wunderground v.1.15,2013-03-15 06:40:00,
2013-03-15 01:50:00,47.2,30.9,29.95,South,191,8.0,11.0,53,0.00,,,0.00,Wunderground v.1.15,2013-03-15 06:50:00,
2013-03-15 02:00:00,47.0,30.7,29.94,South,186,8.0,11.0,53,0.00,,,0.00,Wunderground v.1.15,2013-03-15 07:00:00,
2013-03-15 02:10:00,46.4,30.6,29.94,South,190,7.0,7.0,54,0.00,,,0.00,Wunderground v.1.15,2013-03-15 07:10:00,
2013-03-15 02:20:00,46.0,30.3,29.93,South,183,6.0,11.0,54,0.00,,,0.00,Wunderground v.1.15,2013-03-15 07:20:00,
2013-03-15 02:30:00,46.1,30.4,29.93,South,187,7.0,11.0,54,0.00,,,0.00,Wunderground v.1.15,2013-03-15 07:30:00,
2013-03-15 02:40:00,45.9,30.6,29.93,SSW,193,7.0,11.0,55,0.00,,,0.00,Wunderground v.1.15,2013-03-15 07:40:00,
2013-03-15 02:50:00,45.5,30.3,29.92,SSW,211,6.0,11.0,55,0.00,,,0.00,Wunderground v.1.15,2013-03-15 07:50:00,
2013-03-15 03:00:00,45.7,30.4,29.92,SSW,209,6.0,6.0,55,0.00,,,0.00,Wunderground v.1.15,2013-03-15 08:00:00,
2013-03-15 03:10:00,45.5,30.7,29.92,SSW,206,5.0,6.0,56,0.00,,,0.00,Wunderground v.1.15,2013-03-15 08:10:00,
2013-03-15 03:20:00,45.7,30.4,29.91,SSW,207,6.0,6.0,55,0.00,,,0.00,Wunderground v.1.15,2013-03-15 08:20:00,
2013-03-15 03:30:00,45.1,30.3,29.90,SSW,209,5.0,5.0,56,0.00,,,0.00,Wunderground v.1.15,2013-03-15 08:30:00,
2013-03-15 03:40:00,44.7,30.0,29.90,SW,231,4.0,4.0,56,0.00,,,0.00,Wunderground v.1.15,2013-03-15 08:40:00,
2013-03-15 03:50:00,44.0,30.2,29.89,SSW,207,3.0,8.0,58,0.00,,,0.00,Wunderground v.1.15,2013-03-15 08:50:00,
2013-03-15 04:00:00,44.2,30.3,29.88,SSW,211,4.0,4.0,58,0.00,,,0.00,Wunderground v.1.15,2013-03-15 09:00:00,
2013-03-15 04:10:00,44.6,30.7,29.88,SW,221,3.0,8.0,58,0.00,,,0.00,Wunderground v.1.15,2013-03-15 09:10:00,
2013-03-15 04:20:00,45.0,31.1,29.87,SSW,206,3.0,8.0,58,0.00,,,0.00,Wunderground v.1.15,2013-03-15 09:20:00,
2013-03-15 04:30:00,45.9,31.1,29.86,SW,233,2.0,2.0,56,0.00,,,0.00,Wunderground v.1.15,2013-03-15 09:30:00,
2013-03-15 04:40:00,46.1,31.3,29.86,WSW,239,2.0,8.0,56,0.00,,,0.00,Wunderground v.1.15,2013-03-15 09:40:00,
2013-03-15 04:50:00,46.1,31.3,29.86,West,261,4.0,8.0,56,0.00,,,0.00,Wunderground v.1.15,2013-03-15 09:50:00,
2013-03-15 05:00:00,45.7,31.3,29.85,West,273,5.0,8.0,57,0.00,,,0.00,Wunderground v.1.15,2013-03-15 10:00:00,
2013-03-15 05:10:00,46.1,32.1,29.85,West,272,6.0,8.0,58,0.00,,,0.00,Wunderground v.1.15,2013-03-15 10:10:00,
2013-03-15 05:20:00,47.1,32.6,29.85,WSW,245,8.0,9.0,57,0.00,,,0.00,Wunderground v.1.15,2013-03-15 10:20:00,
2013-03-15 05:30:00,47.6,32.7,29.85,WSW,238,8.0,12.0,56,0.00,,,0.00,Wunderground v.1.15,2013-03-15 10:30:00,
2013-03-15 05:40:00,48.3,32.9,29.84,WNW,297,8.0,8.0,55,0.00,,,0.00,Wunderground v.1.15,2013-03-15 10:40:00,
2013-03-15 05:50:00,48.2,32.8,29.84,West,274,8.0,8.0,55,0.00,,,0.00,Wunderground v.1.15,2013-03-15 10:50:00,
2013-03-15 06:00:00,48.0,32.6,29.85,WSW,254,6.0,8.0,55,0.00,,,0.00,Wunderground v.1.15,2013-03-15 11:00:00,
2013-03-15 06:10:00,48.3,32.4,29.84,West,281,6.0,8.0,54,0.00,,,0.00,Wunderground v.1.15,2013-03-15 11:10:00,
2013-03-15 06:20:00,48.8,32.4,29.84,WNW,286,7.0,8.0,53,0.00,,,0.00,Wunderground v.1.15,2013-03-15 11:20:00,
2013-03-15 06:30:00,49.2,32.3,29.83,WNW,297,6.0,8.0,52,0.00,,,0.00,Wunderground v.1.15,2013-03-15 11:30:00,
2013-03-15 06:40:00,49.0,32.1,29.83,West,266,6.0,10.0,52,0.00,,,0.00,Wunderground v.1.15,2013-03-15 11:40:00,
2013-03-15 06:50:00,48.9,32.5,29.83,WNW,290,7.0,8.0,53,0.00,,,0.00,Wunderground v.1.15,2013-03-15 11:50:00,
2013-03-15 07:00:00,49.1,32.2,29.83,West,274,6.0,6.0,52,0.00,,,0.00,Wunderground v.1.15,2013-03-15 12:00:00,
2013-03-15 07:10:00,48.9,32.5,29.83,West,272,5.0,8.0,53,0.00,,,0.00,Wunderground v.1.15,2013-03-15 12:10:00,
2013-03-15 07:20:00,48.5,32.1,29.83,NNW,328,4.0,4.0,53,0.00,,,0.00,Wunderground v.1.15,2013-03-15 12:20:00,
2013-03-15 07:30:00,48.1,32.2,29.83,WSW,248,3.0,8.0,54,0.00,,,0.00,Wunderground v.1.15,2013-03-15 12:30:00,
2013-03-15 07:40:00,47.6,32.2,29.83,WNW,298,4.0,8.0,55,0.00,,,0.00,Wunderground v.1.15,2013-03-15 12:40:00,
2013-03-15 07:50:00,47.0,32.1,29.83,WNW,289,5.0,8.0,56,0.00,,,0.00,Wunderground v.1.15,2013-03-15 12:50:00,
2013-03-15 08:00:00,46.0,32.5,29.82,NW,322,3.0,8.0,59,0.00,,,0.00,Wunderground v.1.15,2013-03-15 13:00:00,
2013-03-15 08:10:00,45.4,32.3,29.82,West,260,4.0,4.0,60,0.00,,,0.00,Wunderground v.1.15,2013-03-15 13:10:00,
2013-03-15 08:20:00,46.0,32.9,29.82,NW,307,4.0,8.0,60,0.00,,,0.00,Wunderground v.1.15,2013-03-15 13:20:00,
2013-03-15 08:30:00,46.5,32.9,29.82,NNW,340,4.0,4.0,59,0.00,,,0.00,Wunderground v.1.15,2013-03-15 13:30:00,
2013-03-15 08:40:00,46.7,33.1,29.82,WNW,292,2.0,8.0,59,0.00,,,0.00,Wunderground v.1.15,2013-03-15 13:40:00,
2013-03-15 08:50:00,46.4,33.7,29.82,NW,312,3.0,8.0,61,0.00,,,0.00,Wunderground v.1.15,2013-03-15 13:50:00,
2013-03-15 09:00:00,46.9,33.7,29.81,WNW,289,2.0,8.0,60,0.00,,,0.00,Wunderground v.1.15,2013-03-15 14:00:00,
2013-03-15 09:10:00,47.3,34.1,29.81,NW,304,3.0,3.0,60,0.00,,,0.00,Wunderground v.1.15,2013-03-15 14:10:00,
2013-03-15 09:20:00,47.5,34.3,29.81,WNW,293,2.0,2.0,60,0.00,,,0.00,Wunderground v.1.15,2013-03-15 14:20:00,
2013-03-15 09:30:00,48.9,34.3,29.81,WNW,283,2.0,8.0,57,0.00,,,0.00,Wunderground v.1.15,2013-03-15 14:30:00,
2013-03-15 09:40:00,50.1,34.1,29.81,WNW,292,5.0,8.0,54,0.00,,,0.00,Wunderground v.1.15,2013-03-15 14:40:00,
2013-03-15 09:50:00,51.2,34.6,29.82,West,281,4.0,8.0,53,0.00,,,0.00,Wunderground v.1.15,2013-03-15 14:50:00,
2013-03-15 10:00:00,52.3,34.7,29.81,WNW,288,5.0,8.0,51,0.00,,,0.00,Wunderground v.1.15,2013-03-15 15:00:00,
2013-03-15 10:10:00,53.6,34.9,29.80,West,263,4.0,4.0,49,0.00,,,0.00,Wunderground v.1.15,2013-03-15 15:10:00,
2013-03-15 10:20:00,54.5,35.2,29.80,WNW,287,4.0,8.0,48,0.00,,,0.00,Wunderground v.1.15,2013-03-15 15:20:00,
2013-03-15 10:30:00,55.7,35.2,29.80,NW,308,3.0,8.0,46,0.00,,,0.00,Wunderground v.1.15,2013-03-15 15:30:00,
2013-03-15 10:40:00,56.7,35.0,29.80,WSW,249,4.0,4.0,44,0.00,,,0.00,Wunderground v.1.15,2013-03-15 15:40:00,
2013-03-15 10:50:00,57.5,35.7,29.79,WSW,242,3.0,3.0,44,0.00,,,0.00,Wunderground v.1.15,2013-03-15 15:50:00,
2013-03-15 11:00:00,58.9,35.2,29.79,WNW,290,3.0,8.0,41,0.00,,,0.00,Wunderground v.1.15,2013-03-15 16:00:00,
2013-03-15 11:10:00,61.1,36.6,29.79,West,259,2.0,2.0,40,0.00,,,0.00,Wunderground v.1.15,2013-03-15 16:10:00,
2013-03-15 11:20:00,62.6,35.3,29.79,West,260,3.0,8.0,36,0.00,,,0.00,Wunderground v.1.15,2013-03-15 16:20:00,
2013-03-15 11:30:00,63.3,35.9,29.78,West,269,3.0,3.0,36,0.00,,,0.00,Wunderground v.1.15,2013-03-15 16:30:00,
2013-03-15 11:40:00,64.8,35.8,29.78,SSW,210,3.0,3.0,34,0.00,,,0.00,Wunderground v.1.15,2013-03-15 16:40:00,
2013-03-15 11:50:00,66.2,35.4,29.77,SSW,204,3.0,8.0,32,0.00,,,0.00,Wunderground v.1.15,2013-03-15 16:50:00,
2013-03-15 12:00:00,66.7,33.4,29.78,SW,236,4.0,8.0,29,0.00,,,0.00,Wunderground v.1.15,2013-03-15 17:00:00,
2013-03-15 12:10:00,67.2,33.8,29.78,West,266,4.0,8.0,29,0.00,,,0.00,Wunderground v.1.15,2013-03-15 17:10:00,
2013-03-15 12:20:00,68.0,34.5,29.77,WSW,248,4.0,8.0,29,0.00,,,0.00,Wunderground v.1.15,2013-03-15 17:20:00,
2013-03-15 12:30:00,68.3,33.9,29.77,SW,233,5.0,5.0,28,0.00,,,0.00,Wunderground v.1.15,2013-03-15 17:30:00,
2013-03-15 12:40:00,68.1,33.7,29.76,SW,223,4.0,4.0,28,0.00,,,0.00,Wunderground v.1.15,2013-03-15 17:40:00,
2013-03-15 12:50:00,68.2,33.8,29.75,West,264,4.0,4.0,28,0.00,,,0.00,Wunderground v.1.15,2013-03-15 17:50:00,
2013-03-15 13:00:00,67.9,33.6,29.75,WSW,248,4.0,8.0,28,0.00,,,0.00,Wunderground v.1.15,2013-03-15 18:00:00,
2013-03-15 13:10:00,67.5,33.2,29.75,WSW,240,4.0,4.0,28,0.00,,,0.00,Wunderground v.1.15,2013-03-15 18:10:00,
2013-03-15 13:20:00,67.8,33.5,29.75,WNW,284,4.0,4.0,28,0.00,,,0.00,Wunderground v.1.15,2013-03-15 18:20:00,
2013-03-15 13:30:00,68.7,34.3,29.75,WSW,257,6.0,8.0,28,0.00,,,0.00,Wunderground v.1.15,2013-03-15 18:30:00,
2013-03-15 13:40:00,69.5,32.1,29.74,West,264,6.0,9.0,25,0.00,,,0.00,Wunderground v.1.15,2013-03-15 18:40:00,
2013-03-15 13:50:00,70.1,32.6,29.74,West,279,6.0,8.0,25,0.00,,,0.00,Wunderground v.1.15,2013-03-15 18:50:00,
2013-03-15 14:00:00,71.0,31.3,29.73,West,259,5.0,9.0,23,0.00,,,0.00,Wunderground v.1.15,2013-03-15 19:00:00,
2013-03-15 14:10:00,71.6,30.7,29.73,West,263,6.0,10.0,22,0.00,,,0.00,Wunderground v.1.15,2013-03-15 19:10:00,
2013-03-15 14:20:00,71.5,31.7,29.72,NW,308,9.0,9.0,23,0.00,,,0.00,Wunderground v.1.15,2013-03-15 19:20:00,
2013-03-15 14:30:00,72.5,30.3,29.71,WNW,299,6.0,8.0,21,0.00,,,0.00,Wunderground v.1.15,2013-03-15 19:30:00,
2013-03-15 14:40:00,73.4,31.1,29.71,NW,313,6.0,8.0,21,0.00,,,0.00,Wunderground v.1.15,2013-03-15 19:40:00,
2013-03-15 14:50:00,74.2,29.3,29.70,WNW,301,8.0,9.0,19,0.00,,,0.00,Wunderground v.1.15,2013-03-15 19:50:00,
2013-03-15 15:00:00,74.3,28.0,29.70,NW,311,8.0,13.0,18,0.00,,,0.00,Wunderground v.1.15,2013-03-15 20:00:00,
2013-03-15 15:10:00,74.8,27.0,29.69,WNW,291,9.0,9.0,17,0.00,,,0.00,Wunderground v.1.15,2013-03-15 20:10:00,
2013-03-15 15:20:00,74.7,27.0,29.69,NW,311,9.0,11.0,17,0.00,,,0.00,Wunderground v.1.15,2013-03-15 20:20:00,
2013-03-15 15:30:00,74.5,25.3,29.69,NW,317,9.0,9.0,16,0.00,,,0.00,Wunderground v.1.15,2013-03-15 20:30:00,
2013-03-15 15:40:00,74.7,27.0,29.68,West,271,10.0,10.0,17,0.00,,,0.00,Wunderground v.1.15,2013-03-15 20:40:00,
2013-03-15 15:50:00,75.1,25.8,29.68,WNW,303,10.0,10.0,16,0.00,,,0.00,Wunderground v.1.15,2013-03-15 20:50:00,
2013-03-15 16:00:00,74.8,27.0,29.68,WNW,289,11.0,11.0,17,0.00,,,0.00,Wunderground v.1.15,2013-03-15 21:00:00,
2013-03-15 16:10:00,74.4,26.7,29.68,West,263,10.0,14.0,17,0.00,,,0.00,Wunderground v.1.15,2013-03-15 21:10:00,
2013-03-15 16:20:00,74.5,26.8,29.68,WNW,300,9.0,10.0,17,0.00,,,0.00,Wunderground v.1.15,2013-03-15 21:20:00,
2013-03-15 16:30:00,74.4,28.1,29.67,NW,308,10.0,10.0,18,0.00,,,0.00,Wunderground v.1.15,2013-03-15 21:30:00,
2013-03-15 16:40:00,74.8,28.4,29.68,WNW,293,9.0,11.0,18,0.00,,,0.00,Wunderground v.1.15,2013-03-15 21:40:00,
2013-03-15 16:50:00,74.9,29.8,29.68,NNW,329,9.0,9.0,19,0.00,,,0.00,Wunderground v.1.15,2013-03-15 21:50:00,
2013-03-15 17:00:00,74.2,27.9,29.67,NNW,328,12.0,18.0,18,0.00,,,0.00,Wunderground v.1.15,2013-03-15 22:00:00,
2013-03-15 17:10:00,74.0,30.4,29.68,NW,311,12.0,12.0,20,0.00,,,0.00,Wunderground v.1.15,2013-03-15 22:10:00,
2013-03-15 17:20:00,74.7,29.7,29.68,NW,309,7.0,8.0,19,0.00,,,0.00,Wunderground v.1.15,2013-03-15 22:20:00,
2013-03-15 17:30:00,75.0,29.9,29.68,WNW,303,8.0,8.0,19,0.00,,,0.00,Wunderground v.1.15,2013-03-15 22:30:00,
2013-03-15 17:40:00,74.8,29.8,29.68,NW,322,8.0,8.0,19,0.00,,,0.00,Wunderground v.1.15,2013-03-15 22:40:00,
2013-03-15 17:50:00,74.4,29.4,29.68,NW,304,9.0,9.0,19,0.00,,,0.00,Wunderground v.1.15,2013-03-15 22:50:00,
2013-03-15 18:00:00,74.0,29.1,29.68,NW,323,12.0,12.0,19,0.00,,,0.00,Wunderground v.1.15,2013-03-15 23:00:00,
2013-03-15 18:10:00,73.5,29.9,29.68,NW,310,12.0,13.0,20,0.00,,,0.00,Wunderground v.1.15,2013-03-15 23:10:00,
2013-03-15 18:20:00,72.8,28.1,29.68,NW,316,13.0,13.0,19,0.00,,,0.00,Wunderground v.1.15,2013-03-15 23:20:00,
2013-03-15 18:30:00,71.6,29.6,29.69,NW,323,13.0,13.0,21,0.00,,,0.00,Wunderground v.1.15,2013-03-15 23:30:00,
2013-03-15 18:40:00,71.2,30.4,29.69,NW,326,10.0,12.0,22,0.00,,,0.00,Wunderground v.1.15,2013-03-15 23:40:00,
2013-03-15 18:50:00,70.5,29.8,29.69,NNW,331,9.0,9.0,22,0.00,,,0.00,Wunderground v.1.15,2013-03-15 23:50:00,
2013-03-15 19:00:00,69.9,29.3,29.70,NW,316,10.0,10.0,22,0.00,,,0.00,Wunderground v.1.15,2013-03-16 00:00:00,
2013-03-15 19:10:00,69.3,28.8,29.70,NW,321,9.0,18.0,22,0.00,,,0.00,Wunderground v.1.15,2013-03-16 00:10:00,
2013-03-15 19:20:00,68.4,34.0,29.70,NNE,13,12.0,18.0,28,0.00,,,0.00,Wunderground v.1.15,2013-03-16 00:20:00,
2013-03-15 19:30:00,67.1,35.4,29.71,NNE,17,12.0,18.0,31,0.00,,,0.00,Wunderground v.1.15,2013-03-16 00:30:00,
2013-03-15 19:40:00,65.5,35.6,29.71,NNE,23,11.0,18.0,33,0.00,,,0.00,Wunderground v.1.15,2013-03-16 00:40:00,
2013-03-15 19:50:00,64.0,35.8,29.72,NE,38,13.0,18.0,35,0.00,,,0.00,Wunderground v.1.15,2013-03-16 00:50:00,
2013-03-15 20:00:00,62.6,36.6,29.73,NE,44,10.0,18.0,38,0.00,,,0.00,Wunderground v.1.15,2013-03-16 01:00:00,
2013-03-15 20:10:00,61.8,36.6,29.74,NE,39,11.0,18.0,39,0.00,,,0.00,Wunderground v.1.15,2013-03-16 01:10:00,
2013-03-15 20:20:00,60.3,37.7,29.75,ENE,57,11.0,18.0,43,0.00,,,0.00,Wunderground v.1.15,2013-03-16 01:20:00,
2013-03-15 20:30:00,59.1,38.9,29.75,NE,50,10.0,18.0,47,0.00,,,0.00,Wunderground v.1.15,2013-03-16 01:30:00,
2013-03-15 20:40:00,57.6,38.0,29.75,NNE,25,11.0,18.0,48,0.00,,,0.00,Wunderground v.1.15,2013-03-16 01:40:00,
2013-03-15 20:50:00,57.1,36.5,29.76,NNE,27,11.0,18.0,46,0.00,,,0.00,Wunderground v.1.15,2013-03-16 01:50:00,
2013-03-15 21:00:00,56.6,36.0,29.76,NE,36,12.0,12.0,46,0.00,,,0.00,Wunderground v.1.15,2013-03-16 02:00:00,
2013-03-15 21:10:00,55.8,36.4,29.76,NE,43,11.0,18.0,48,0.00,,,0.00,Wunderground v.1.15,2013-03-16 02:10:00,
2013-03-15 21:20:00,55.0,36.2,29.77,NNE,33,10.0,10.0,49,0.00,,,0.00,Wunderground v.1.15,2013-03-16 02:20:00,
2013-03-15 21:30:00,54.5,36.7,29.78,NE,50,10.0,10.0,51,0.00,,,0.00,Wunderground v.1.15,2013-03-16 02:30:00,
2013-03-15 21:40:00,53.8,36.6,29.78,NE,53,7.0,7.0,52,0.00,,,0.00,Wunderground v.1.15,2013-03-16 02:40:00,
2013-03-15 21:50:00,53.7,37.9,29.79,North,11,6.0,18.0,55,0.00,,,0.00,Wunderground v.1.15,2013-03-16 02:50:00,
2013-03-15 22:00:00,52.6,37.8,29.79,NE,34,6.0,18.0,57,0.00,,,0.00,Wunderground v.1.15,2013-03-16 03:00:00,
2013-03-15 22:10:00,51.7,37.4,29.79,NNE,12,7.0,18.0,58,0.00,,,0.00,Wunderground v.1.15,2013-03-16 03:10:00,
2013-03-15 22:20:00,50.6,37.2,29.79,NE,39,7.0,18.0,60,0.00,,,0.00,Wunderground v.1.15,2013-03-16 03:20:00,
2013-03-15 22:30:00,50.2,36.8,29.80,NE,37,9.0,9.0,60,0.00,,,0.00,Wunderground v.1.15,2013-03-16 03:30:00,
2013-03-15 22:40:00,50.1,36.3,29.80,NNE,25,9.0,18.0,59,0.00,,,0.00,Wunderground v.1.15,2013-03-16 03:40:00,
2013-03-15 22:50:00,50.0,35.8,29.80,NE,38,9.0,18.0,58,0.00,,,0.00,Wunderground v.1.15,2013-03-16 03:50:00,
2013-03-15 23:00:00,49.7,34.6,29.81,NNE,18,11.0,18.0,56,0.00,,,0.00,Wunderground v.1.15,2013-03-16 04:00:00,
2013-03-15 23:10:00,49.8,34.3,29.82,NE,46,14.0,18.0,55,0.00,,,0.00,Wunderground v.1.15,2013-03-16 04:10:00,
2013-03-15 23:20:00,49.1,33.6,29.82,NNE,28,15.0,15.0,55,0.00,,,0.00,Wunderground v.1.15,2013-03-16 04:20:00,
2013-03-15 23:30:00,47.9,33.8,29.83,NE,39,10.0,10.0,58,0.00,,,0.00,Wunderground v.1.15,2013-03-16 04:30:00,
2013-03-15 23:40:00,47.3,32.8,29.83,NNE,29,9.0,18.0,57,0.00,,,0.00,Wunderground v.1.15,2013-03-16 04:40:00,
2013-03-15 23:50:00,46.6,31.7,29.84,NE,46,12.0,18.0,56,0.00,,,0.00,Wunderground v.1.15,2013-03-16 04:50:00,